Regional Weather Roundup
Issued by NWS

Home | Current Version | Previous Version | Graphics & Text | Print | Product List | Glossary On
Versions: 1 2 3 4 5 6 7 8 9 10 11 12 13 14 15 16 17 18 19 20 21 22 23 24 25 26 27 28 29 30 31 32 33 34 35 36 37 38 39 40 41 42 43 44 45 46 47 48 49 50
417
ASUS45 KCYS 180210
RWRWY

WYOMING REGIONAL WEATHER ROUNDUP
NATIONAL WEATHER SERVICE CHEYENNE WY
700 PM MST TUE JAN 17 2017

NOTE:  "FAIR" INDICATES FEW OR NO CLOUDS BELOW 12,000 FEET
WITH NO SIGNIFICANT WEATHER AND/OR OBSTRUCTIONS TO VISIBILITY.

WYZ001-180300-
YELLOWSTONE NATIONAL PARK

CITY           SKY/WX    TMP DP  RH WIND       PRES   REMARKS
LK YELLOWSTONE   N/A      4   2  91 CALM      30.11S
W YELLOWSTONE  NOT AVBL

$$
WYZ002>013-054>058-071-098>099-180300-
NORTHERN WYOMING

CITY           SKY/WX    TMP DP  RH WIND       PRES   REMARKS
JACKSON        CLEAR     -2  -2 100 CALM      30.15F
CODY           NOT AVBL
GREYBULL       FAIR       1  -5  75 NW5       29.99F WCI  -9
WORLAND        FAIR      10   5  80 NW3       29.97F
SHERIDAN       FAIR      21  13  71 S5        29.88F WCI  15
BUFFALO        FAIR      43  21  41 SW5       29.92R
GILLETTE       FAIR      37  21  52 SW21      29.90S WCI  26
HULETT         FAIR      32  18  55 SW10      29.91S WCI  24
NEWCASTLE      FAIR      25  18  74 NE3       29.95S

$$
WYZ014>020-022>026-101>103-180300-
CENTRAL WYOMING

CITY           SKY/WX    TMP DP  RH WIND       PRES   REMARKS
BIG PINEY      FAIR      -4  -9  79 NW3       30.16R
PINEDALE       FAIR      -9 -15  77 NW6       30.15S WCI -23
DUBOIS         NOT AVBL
LANDER         FAIR      14   7  73 CALM      30.06S
RIVERTON       FAIR       6   1  80 CALM      30.08S
CASPER         FAIR      31  12  45 SW26G38   30.02R WCI  17
DOUGLAS        FAIR      32  13  45 NW12      29.98S WCI  23

$$
WYZ021-027>030-104>119-180300-
SOUTHERN WYOMING

CITY           SKY/WX    TMP DP  RH WIND       PRES   REMARKS
EVANSTON       FAIR      17   6  62 S3        30.13S
ROCK SPRINGS   FAIR       4  -1  80 CALM      30.15S
RAWLINS        FAIR      14   7  73 S7        30.14R WCI   4
LARAMIE        FAIR      11   7  84 N7        30.07S WCI   0
CHEYENNE       FAIR      30  13  49 W10       30.01R WCI  21
TORRINGTON     FAIR      34  10  37 W8        29.97R WCI  27

$$




USA.gov is the U.S. government's official web portal to all federal, state and local government web resources and services.